Location: Haliburton Scout Reserve
(45.0900°N, 78.3200°W)
Time: 02:38:53
(UTC-04:00)

DIWATA 2B (PO-101) - Pass Details

Date: 27 May 2022
Orbit: 585 x 597 km, 98.0° (Epoch: 27 June)

Event Time Altitude Azimuth Distance (km) Brightness Sun altitude
Exits shadow 02:23:54 21° 121° (ESE) 1,335 ? -21.5°
Maximum altitude 02:26:02 36° 70° (ENE) 948 ? -21.4°
Drops below altitude 10° 02:29:52 10° 3° (N) 1,927 ? -21.2°
Sets 02:32:09 0° 355° (N) 2,835 ? -21.0°
